Terug naar catalogus

COSMOS 1478

ActiefMilitairLEO
NORAD 14176·PAYLOAD·🇷🇺 Russia

Gelanceerd Jul 6, 1983 vanaf Plesetsk Cosmodrome

Loading…

Volgende Passages (komende 24 uur)

TLE

VersSource: Space-Track

Epoch: Sep 14, 2026, 01:33 UTC

1 14176U 83069F   26257.06491532 -.00000013  00000-0  18618-4 0  9990
2 14176  74.0231 281.9502 0011742  30.6003 358.2649 12.48264917968231

Volg COSMOS 1478 in realtime met AllMySat

Download on the App Store